[[{"header":{"parameterUnit":"m.s-1","parameterCategory":1,"la1":30.2991,"la2":30.254,"lo1":-89.0895,"lo2":-89.0444,"dy":0.0017,"dx":0.0017,"nx":28,"ny":28,"refTime":"2025-04-02T09:00:00:Z","depth":0,"parameterNumber":2,"parameterNumberName":"U-component_of_WINDS"},"data":[0,0,0,0,0,0,0,0,0,0,0,0,0,0,0,0,0,0,0,0,0,0,0,0,0,0,0,0,0,0,0,0,0,0,0,0,0,0,0,0,0,0,0,0,0,0,0,0,0,0,0,0,0,0,0,0,0,0,-4.7142,-4.7143,0,-4.7265,-4.7267,-4.7268,-4.7289,-4.7287,-4.7286,-4.7285,-4.741,-4.7414,-4.7418,0,0,0,0,0,0,0,0,0,0,0,0,0,-4.6921,-4.6925,-4.7141,-4.7143,-4.7145,-4.7265,-4.7267,-4.7269,-4.7289,-4.7287,-4.7286,-4.7285,-4.7408,-4.7413,-4.7419,0,0,0,0,0,0,0,0,0,0,0,0,0,-4.7028,-4.6926,-4.7141,-4.7169,-4.7173,-4.7265,-4.7267,-4.7269,-4.7289,-4.7287,-4.7286,-4.7284,-4.7407,-4.7413,-4.7419,-4.7491,0,0,-4.7439,-4.7442,0,0,0,0,0,0,0,0,-4.7021,-4.7036,-4.7164,-4.7167,-4.7172,-4.726,-4.7235,-4.7343,-4.7289,-4.7245,-4.7285,-4.7284,-4.7361,-4.7371,-4.7398,-4.7497,-4.7502,-4.744,-4.7444,-4.7446,-4.7448,0,0,0,0,0,0,0,-4.7014,-4.703,-4.719,-4.7165,-4.717,-4.7175,-4.7188,-4.7255,-4.731,-4.7249,-4.725,-4.7265,-4.7363,-4.7392,-4.7401,-4.7504,-4.7439,-4.7445,-4.7449,-4.7452,-4.7668,-4.767,0,0,0,0,0,0,-4.7002,-4.7024,-4.7186,-4.7194,-4.7091,-4.718,-4.7195,-4.7233,-4.731,-4.732,-4.7266,-4.7265,-4.7381,-4.7393,-4.7405,-4.7493,-4.7446,-4.7452,-4.7456,-4.7666,-4.7668,-4.767,0,0,0,0,0,0,-4.6997,-4.7016,-4.7181,-4.711,-4.7131,-4.7186,-4.7228,-4.7237,-4.7265,-4.7323,-4.7333,-4.7285,-4.7381,-4.7396,-4.747,-4.7498,-4.7455,-4.7461,-4.7664,-4.7667,-4.7669,-4.767,0,0,0,0,0,0,-4.6991,-4.7014,-4.7042,-4.711,-4.7135,-4.7244,-4.723,-4.724,-4.7276,-4.7277,-4.7343,-4.7353,-4.738,-4.746,-4.7476,-4.7506,-4.7466,-4.7661,-4.7665,-4.7668,-4.7668,-4.7673,-4.7677,0,0,0,0,0,-4.6983,-4.7037,-4.7044,-4.7063,-4.7171,-4.7246,-4.726,-4.7291,-4.7279,-4.7307,-4.7344,-4.7351,-4.7493,-4.7467,-4.7486,-4.7518,-4.766,-4.7664,-4.7668,-4.7666,-4.7672,-4.7677,0,0,0,0,0,0,-4.697,-4.7047,-4.7055,-4.7133,-4.7183,-4.7249,-4.7286,-4.7296,-4.735,-4.7348,-4.7384,-4.7399,-4.747,-4.7502,-4.7472,-4.7591,-4.7575,-4.7583,-4.7567,-4.7574,-4.7578,-4.7568,-4.7471,0,0,0,0,0,-4.6977,-4.7032,-4.7096,-4.7159,-4.7183,-4.723,-4.7264,-4.7284,-4.7337,-4.7357,-4.74,-4.745,-4.7506,-4.7542,-4.7597,-4.7674,-4.7688,-4.7705,-4.771,-4.7713,-4.7719,-4.7761,-4.7769,-4.7684,-4.7684,-4.7684,0,0,-4.6991,-4.704,-4.7072,-4.7157,-4.7198,-4.7253,-4.7248,-4.7306,-4.7347,-4.7366,-4.7438,-4.7471,-4.753,-4.7605,-4.764,-4.7633,-4.7746,-4.7719,-4.7721,-4.7725,-4.7766,-4.7774,-4.7781,-4.7687,-4.7686,-4.7686,0,0,-4.7044,-4.7087,-4.7143,-4.7185,-4.7247,-4.7279,-4.7292,-4.7357,-4.738,-4.7453,-4.7468,-4.7518,-4.7614,-4.7654,-4.7687,-4.7757,-4.7765,-4.7774,-4.7797,-4.7837,-4.7844,-4.785,-4.7873,-4.7881,-4.778,-4.778,-4.778,0,-4.7052,-4.7137,-4.7171,-4.7229,-4.7266,-4.7287,-4.7344,-4.7383,-4.746,-4.7484,-4.7476,-4.7597,-4.7638,-4.7723,-4.774,-4.7767,-4.7782,-4.7765,-4.7841,-4.7847,-4.7853,-4.7875,-4.7884,-4.7781,-4.7781,-4.7781,-4.7781,0,-4.7144,-4.7202,-4.724,-4.7314,-4.7356,-4.7413,-4.7456,-4.7494,-4.7511,-4.7542,-4.7616,-4.7667,-4.7731,-4.7754,-4.777,-4.7841,-4.7834,-4.7833,-4.7817,-4.7861,-4.7883,-4.7892,-4.7782,-4.7782,-4.7781,-4.7781,0,0,-4.719,-4.7283,-4.7297,-4.733,-4.7401,-4.7447,-4.7505,-4.757,-4.7601,-4.7654,-4.7702,-4.7784,-4.7783,-4.7821,-4.7843,-4.7879,-4.7929,-4.7874,-4.7876,-4.788,-4.8008,-4.8007,-4.8016,-4.7936,-4.7938,-4.7939,-4.8002,0,-4.7249,-4.7354,-4.7387,-4.7474,-4.7528,-4.755,-4.76,-4.7649,-4.7681,-4.7731,-4.7766,-4.7822,-4.7818,-4.7841,-4.7878,-4.7915,-4.7955,-4.7912,-4.798,-4.7982,-4.7962,-4.8028,-4.8027,-4.8083,-4.8011,-4.8013,-4.8014,0,-4.7332,-4.7387,-4.7479,-4.7543,-4.7567,-4.7612,-4.7674,-4.7722,-4.7777,-4.7798,-4.7841,-4.786,-4.7921,-4.7904,-4.7988,-4.7958,-4.7988,-4.8011,-4.8014,-4.802,-4.7999,-4.8033,-4.8103,-4.811,-4.8028,-4.8027,-4.8026,0,-4.7354,-4.7451,-4.7519,-4.7547,-4.7624,-4.7655,-4.7689,-4.7743,-4.778,-4.7834,-4.7858,-4.7918,-4.7951,-4.7997,-4.8032,-4.8016,-4.8112,-4.8098,-4.8129,-4.8128,-4.8146,-4.8144,-4.822,-4.817,-4.817,-4.817,-4.817,0,-4.7415,-4.747,-4.7529,-4.757,-4.7633,-4.7671,-4.7732,-4.7767,-4.7815,-4.7863,-4.7886,-4.7931,-4.7975,-4.8026,-4.8054,-4.8118,-4.8133,-4.815,-4.8157,-4.8147,-4.8144,-4.8165,-4.8161,-4.8172,-4.8172,-4.8171,-4.8171,0,-4.7449,-4.7491,-4.7566,-4.7633,-4.7651,-4.7694,-4.7752,-4.7792,-4.7826,-4.7886,-4.7903,-4.7955,-4.8015,-4.8056,-4.8133,-4.8152,-4.8221,-4.8228,-4.8202,-4.8205,-4.8233,-4.8229,-4.8322,-4.8336,-4.8279,-4.828,-4.828,0,-4.7484,-4.7527,-4.7599,-4.7633,-4.7667,-4.7722,-4.776,-4.7799,-4.7837,-4.7905,-4.7937,-4.7999,-4.8051,-4.8146,-4.8191,-4.825,-4.8256,-4.8285,-4.8265,-4.8254,-4.8254,-4.825,-4.8254,-4.8287,-4.8288,-4.8288,-4.8289,0,-4.7541,-4.756,-4.7614,-4.7675,-4.7719,-4.7769,-4.7819,-4.7846,-4.7894,-4.7936,-4.7998,-4.8038,-4.8118,-4.8179,-4.8242,-4.8276,-4.829,-4.8295,-4.8305,-4.8294,-4.8277,-4.8285,-4.8208,-4.8292,-4.8292,-4.8291,-4.8291,-4.8291,-4.7576,-4.7614,-4.7671,-4.773,-4.7772,-4.7819,-4.786,-4.7899,-4.7952,-4.802,-4.804,-4.8105,-4.816,-4.8247,-4.8282,-4.8333,-4.833,-4.8344,-4.8348,-4.835,-4.8349,-4.8271,-4.8345,-4.8345,-4.8345,-4.8345,-4.8345,0,-4.7632,-4.767,-4.7724,-4.7794,-4.784,-4.7851,-4.7907,-4.7945,-4.8001,-4.8052,-4.8103,-4.8174,-4.8234,-4.8283,-4.8345,-4.8376,-4.8384,-4.839,-4.8387,-4.8394,-4.835,-4.8334,-4.8383,-4.8383,-4.8383,-4.8383,-4.8383,-4.8383,-4.7667,-4.7733,-4.7759,-4.7846,-4.7884,-4.7947,-4.7978,-4.8021,-4.8061,-4.814,-4.819,-4.8223,-4.8273,-4.8338,-4.8393,-4.8406,-4.8427,-4.8432,-4.8446,-4.8402,-4.8398,-4.8393,-4.8379,-4.8436,-4.8436,-4.8486,-4.8487,-4.8487]},{"header":{"parameterUnit":"m.s-1","parameterCategory":1,"la1":30.2991,"la2":30.254,"lo1":-89.0895,"lo2":-89.0444,"dy":0.0017,"dx":0.0017,"nx":28,"ny":28,"refTime":"2025-04-02T09:00:00:Z","depth":0,"parameterNumber":3,"parameterNumberName":"V-component_of_WINDS"},"data":[0,0,0,0,0,0,0,0,0,0,0,0,0,0,0,0,0,0,0,0,0,0,0,0,0,0,0,0,0,0,0,0,0,0,0,0,0,0,0,0,0,0,0,0,0,0,0,0,0,0,0,0,0,0,0,0,0,0,5.6358,5.6359,0,5.6462,5.6463,5.6464,5.6468,5.6466,5.6465,5.6464,5.6568,5.6572,5.6576,0,0,0,0,0,0,0,0,0,0,0,0,0,5.6162,5.6166,5.6358,5.6359,5.6361,5.6462,5.6463,5.6465,5.6468,5.6466,5.6465,5.6463,5.6567,5.6571,5.6576,0,0,0,0,0,0,0,0,0,0,0,0,0,5.6255,5.6167,5.6358,5.6374,5.6377,5.6461,5.6463,5.6465,5.6468,5.6466,5.6464,5.6463,5.6565,5.6571,5.6577,5.665,0,0,5.6595,5.6597,0,0,0,0,0,0,0,0,5.625,5.6262,5.6371,5.6373,5.6376,5.645,5.6432,5.6527,5.6469,5.6434,5.6464,5.6462,5.653,5.6539,5.6562,5.6655,5.666,5.6595,5.6599,5.6601,5.6603,0,0,0,0,0,0,0,5.6243,5.6258,5.6399,5.6372,5.6376,5.6377,5.6388,5.645,5.6491,5.6436,5.6437,5.6449,5.6531,5.6556,5.6565,5.6661,5.6595,5.66,5.6604,5.6606,5.6824,5.6826,0,0,0,0,0,0,5.6234,5.6252,5.6396,5.6402,5.6307,5.6382,5.6394,5.6428,5.649,5.6498,5.6451,5.6449,5.6547,5.6558,5.6568,5.6661,5.6601,5.6607,5.661,5.6822,5.6824,5.6827,0,0,0,0,0,0,5.6229,5.6246,5.6391,5.6327,5.6346,5.6387,5.6425,5.6431,5.6457,5.6501,5.6508,5.6469,5.6546,5.656,5.6631,5.6665,5.6609,5.6615,5.6819,5.6822,5.6826,5.6846,0,0,0,0,0,0,5.6224,5.6245,5.6273,5.6328,5.6349,5.6453,5.6427,5.6435,5.6467,5.6466,5.652,5.6528,5.6546,5.6622,5.6637,5.6672,5.6619,5.6816,5.682,5.6824,5.6843,5.685,5.6856,0,0,0,0,0,5.6217,5.6274,5.6275,5.6292,5.6386,5.6454,5.6467,5.6487,5.647,5.6499,5.6528,5.6526,5.6659,5.6629,5.6646,5.6683,5.6814,5.6819,5.6824,5.684,5.6849,5.6856,0,0,0,0,0,0,5.622,5.6281,5.6283,5.6359,5.6402,5.6455,5.6492,5.6495,5.6543,5.654,5.6563,5.6575,5.6646,5.6672,5.6638,5.676,5.6734,5.6743,5.6741,5.6749,5.6756,5.6749,5.6624,0,0,0,0,0,5.623,5.6281,5.6331,5.6394,5.6415,5.645,5.6481,5.6493,5.6538,5.6556,5.659,5.6633,5.6685,5.6718,5.6768,5.6847,5.686,5.6881,5.6887,5.6893,5.69,5.6946,5.6957,5.6843,5.6843,5.6843,0,0,5.625,5.629,5.632,5.6396,5.643,5.6483,5.6465,5.6521,5.6561,5.6564,5.6634,5.6661,5.6711,5.6787,5.6822,5.681,5.6934,5.6899,5.6903,5.6908,5.6952,5.6963,5.6973,5.6847,5.6846,5.6846,0,0,5.6315,5.6349,5.6406,5.6442,5.6496,5.6519,5.6533,5.6586,5.6605,5.6676,5.6681,5.6728,5.6816,5.6852,5.6882,5.6964,5.6964,5.6979,5.7014,5.7059,5.7068,5.7076,5.7107,5.7118,5.6986,5.6986,5.6986,0,5.6333,5.6413,5.6435,5.6493,5.6526,5.6534,5.6593,5.6626,5.6692,5.6716,5.6702,5.6815,5.6848,5.6934,5.6955,5.6978,5.6996,5.6973,5.7065,5.7073,5.7081,5.7111,5.7123,5.6988,5.6988,5.6988,5.6987,0,5.6434,5.649,5.653,5.6596,5.6634,5.6692,5.6723,5.6759,5.6769,5.6794,5.6868,5.6909,5.6969,5.699,5.6999,5.7078,5.707,5.706,5.7035,5.7093,5.7122,5.7134,5.699,5.699,5.6989,5.6989,0,0,5.6502,5.6583,5.6597,5.6629,5.6689,5.6733,5.6791,5.6851,5.6883,5.6929,5.698,5.7056,5.7049,5.7083,5.7096,5.7135,5.7201,5.7121,5.7123,5.7136,5.7293,5.7301,5.7314,5.7201,5.7203,5.7205,5.7289,0,5.6575,5.6681,5.6704,5.6795,5.6848,5.6857,5.6909,5.6952,5.6977,5.7026,5.7054,5.7108,5.7093,5.7114,5.7153,5.7184,5.7232,5.7178,5.7249,5.7252,5.7238,5.7328,5.7336,5.7414,5.7301,5.7302,5.7304,0,5.6674,5.6725,5.6822,5.6879,5.6902,5.6947,5.7006,5.7052,5.7102,5.7118,5.7158,5.7168,5.723,5.7202,5.7289,5.7252,5.7283,5.7302,5.7306,5.7314,5.7282,5.7341,5.7439,5.7451,5.7321,5.732,5.7319,0,5.6717,5.6809,5.688,5.6906,5.6973,5.7006,5.7035,5.7084,5.7119,5.717,5.7194,5.725,5.7282,5.7326,5.7352,5.7328,5.7438,5.7411,5.7454,5.7453,5.7477,5.7475,5.7583,5.7494,5.7494,5.7494,5.7493,0,5.6796,5.6856,5.6901,5.6944,5.7012,5.7038,5.7104,5.7133,5.7177,5.7227,5.7237,5.7284,5.7314,5.7366,5.7386,5.7457,5.747,5.7485,5.749,5.7485,5.7484,5.7506,5.7502,5.7497,5.7496,5.7496,5.7495,0,5.6855,5.6888,5.6966,5.7024,5.7041,5.7088,5.7138,5.7181,5.7208,5.7271,5.7287,5.7329,5.739,5.742,5.7495,5.7509,5.759,5.759,5.7574,5.7576,5.7618,5.7614,5.7744,5.7764,5.7661,5.7662,5.7662,0,5.6905,5.6951,5.7015,5.7051,5.7081,5.7137,5.7174,5.7202,5.724,5.7302,5.7339,5.7401,5.7452,5.7549,5.7586,5.7645,5.7648,5.769,5.7656,5.7651,5.7651,5.7649,5.7654,5.7696,5.7697,5.7697,5.7698,0,5.699,5.7004,5.7058,5.7118,5.7163,5.7211,5.7259,5.7287,5.7322,5.7365,5.7429,5.7469,5.7547,5.7609,5.7671,5.7701,5.7707,5.7708,5.7722,5.7718,5.7707,5.7716,5.7591,5.7705,5.7705,5.7704,5.7704,5.7703,5.7047,5.709,5.7143,5.7203,5.7242,5.7287,5.7332,5.7365,5.7419,5.7486,5.7499,5.7567,5.7618,5.7702,5.7734,5.7788,5.7779,5.7798,5.7803,5.7807,5.7811,5.7698,5.7799,5.7799,5.7799,5.7799,5.7799,0,5.7135,5.717,5.7225,5.7292,5.734,5.7342,5.7395,5.7435,5.7496,5.7543,5.7594,5.7669,5.773,5.7772,5.7834,5.787,5.7874,5.7885,5.7884,5.7891,5.7814,5.7798,5.7881,5.7881,5.7881,5.7881,5.7881,5.7881,5.7186,5.726,5.7281,5.7374,5.7409,5.7477,5.7508,5.755,5.7588,5.7671,5.7723,5.7751,5.7797,5.7863,5.792,5.7931,5.7954,5.7966,5.7977,5.7905,5.7896,5.7888,5.7872,5.797,5.797,5.8049,5.805,5.8051]}]]